Location: 22
(39.7117°N, 89.5929°W)
Time: 00:47:36
(UTC-05:00)

A-11 Canister half - Pass Details

Date: 14 June 2023
Orbit: 1524 x 1684 km, 47.3° (Epoch: 29 September)

Event Time Altitude Azimuth Distance (km) Brightness Sun altitude
Rises 00:39:51 0° 298° (WNW) 4,678 12.0 -26.9°
Reaches altitude 10° 00:42:52 10° 298° (WNW) 3,701 11.4 -26.9°
Maximum altitude 00:52:15 87° 28° (NNE) 1,558 8.9 -27.0°
Enters shadow 01:01:18 12° 119° (ESE) 3,609 10.7 -27.0°
